TimeGMT,TemperatureF,Dew PointF,Humidity,Sea Level PressureIn,VisibilityMPH,Wind Direction,Wind SpeedMPH,Gust SpeedMPH,PrecipitationIn,Events,Conditions,WindDirDegrees,DateUTC
12:20 AM,46.4,44.6,93,30.60,5.6,West,9.2,-,N/A,,Mostly Cloudy,270,2013-01-05 00:20:00
12:50 AM,46.4,44.6,93,30.60,5.6,West,9.2,-,N/A,,Mostly Cloudy,270,2013-01-05 00:50:00
1:20 AM,46.4,44.6,93,30.60,5.6,West,9.2,-,N/A,,Mostly Cloudy,260,2013-01-05 01:20:00
1:50 AM,46.4,44.6,93,30.60,5.6,West,11.5,-,N/A,,Overcast,260,2013-01-05 01:50:00
2:20 AM,46.4,44.6,93,30.60,4.3,West,10.4,-,N/A,,Overcast,260,2013-01-05 02:20:00
2:50 AM,46,45,94,30.61,6,West,8.1,,,,Mist,260,2013-01-05 02:50:00
2:50 AM,46.4,44.6,93,30.60,4.3,West,10.4,-,N/A,,Mostly Cloudy,260,2013-01-05 02:50:00
3:20 AM,46.4,44.6,93,30.60,3.7,West,8.1,-,N/A,,Mostly Cloudy,270,2013-01-05 03:20:00
3:50 AM,46.4,44.6,93,30.60,3.1,West,5.8,-,N/A,,Mostly Cloudy,270,2013-01-05 03:50:00
4:20 AM,46.4,44.6,93,30.57,-9999.0,WSW,4.6,-,N/A,,Light Drizzle,250,2013-01-05 04:20:00
4:50 AM,46.4,44.6,93,30.57,-9999.0,WSW,4.6,-,N/A,,Light Drizzle,240,2013-01-05 04:50:00
5:20 AM,46.4,44.6,93,30.57,-9999.0,SW,4.6,-,N/A,,Light Drizzle,230,2013-01-05 05:20:00
5:50 AM,47,46,96,30.58,3,SW,4.6,,,Rain,Drizzle,220,2013-01-05 05:50:00
5:50 AM,46.4,46.4,100,30.57,2.2,SW,4.6,-,N/A,,Light Drizzle,220,2013-01-05 05:50:00
6:20 AM,46.4,46.4,100,30.57,2.8,WSW,6.9,-,N/A,,Light Drizzle,240,2013-01-05 06:20:00
6:50 AM,46.4,46.4,100,30.57,3.1,WSW,5.8,-,N/A,,Mostly Cloudy,240,2013-01-05 06:50:00
7:20 AM,46.4,46.4,100,30.57,3.1,SSW,5.8,-,N/A,,Mostly Cloudy,200,2013-01-05 07:20:00
7:50 AM,48.2,46.4,93,30.60,-9999.0,South,5.8,-,N/A,,Mostly Cloudy,190,2013-01-05 07:50:00
8:20 AM,48.2,46.4,93,30.60,3.1,SSW,5.8,-,N/A,,Mostly Cloudy,210,2013-01-05 08:20:00
8:50 AM,48.2,46.4,93,30.60,4.3,SW,6.9,-,N/A,,Mostly Cloudy,220,2013-01-05 08:50:00
9:20 AM,48.2,48.2,100,30.60,5.0,SW,6.9,-,N/A,,Mostly Cloudy,220,2013-01-05 09:20:00
9:50 AM,48.2,48.2,100,30.60,6.2,SW,8.1,-,N/A,,Mostly Cloudy,220,2013-01-05 09:50:00
10:20 AM,50.0,48.2,94,30.60,6.2,SW,6.9,-,N/A,,Mostly Cloudy,220,2013-01-05 10:20:00
10:50 AM,50.0,48.2,94,30.60,6.2,SW,6.9,-,N/A,,Mostly Cloudy,220,2013-01-05 10:50:00
11:20 AM,50.0,48.2,94,30.60,6.2,SW,8.1,-,N/A,,Mostly Cloudy,230,2013-01-05 11:20:00
11:50 AM,51,47,83,30.59,22,WSW,8.1,,,,Overcast,250,2013-01-05 11:50:00
11:50 AM,51.8,48.2,88,30.60,6.2,WSW,10.4,-,N/A,,Mostly Cloudy,250,2013-01-05 11:50:00
12:20 PM,51.8,46.4,82,30.57,6.2,WSW,11.5,-,N/A,,Mostly Cloudy,250,2013-01-05 12:20:00
12:50 PM,51.8,46.4,82,30.57,6.2,WSW,11.5,-,N/A,,Mostly Cloudy,250,2013-01-05 12:50:00
1:20 PM,51.8,46.4,82,30.57,6.2,WSW,11.5,-,N/A,,Mostly Cloudy,250,2013-01-05 13:20:00
1:50 PM,51.8,46.4,82,30.57,6.2,West,11.5,-,N/A,,Mostly Cloudy,260,2013-01-05 13:50:00
2:20 PM,51.8,46.4,82,30.54,6.2,West,12.7,-,N/A,,Mostly Cloudy,260,2013-01-05 14:20:00
2:50 PM,51,46,77,30.55,25,West,12.7,,,,Overcast,260,2013-01-05 14:50:00
2:50 PM,51.8,46.4,82,30.54,6.2,West,12.7,-,N/A,,Mostly Cloudy,270,2013-01-05 14:50:00
3:20 PM,51.8,46.4,82,30.54,6.2,West,11.5,-,N/A,,Mostly Cloudy,260,2013-01-05 15:20:00
3:50 PM,50.0,46.4,87,30.54,6.2,West,13.8,-,N/A,,Mostly Cloudy,260,2013-01-05 15:50:00
4:20 PM,50.0,46.4,87,30.54,6.2,West,11.5,-,N/A,,Mostly Cloudy,270,2013-01-05 16:20:00
4:50 PM,50.0,46.4,87,30.54,6.2,West,12.7,-,N/A,,Mostly Cloudy,270,2013-01-05 16:50:00
5:20 PM,50.0,46.4,87,30.54,6.2,West,13.8,-,N/A,,Mostly Cloudy,270,2013-01-05 17:20:00
5:50 PM,51,47,80,30.54,19,West,10.4,,,,Overcast,260,2013-01-05 17:50:00
5:50 PM,50.0,46.4,87,30.54,6.2,West,11.5,-,N/A,,Mostly Cloudy,270,2013-01-05 17:50:00
6:20 PM,50.0,46.4,87,30.54,6.2,West,11.5,-,N/A,,Mostly Cloudy,280,2013-01-05 18:20:00
6:50 PM,50.0,46.4,87,30.54,6.2,West,11.5,-,N/A,,Mostly Cloudy,270,2013-01-05 18:50:00
7:20 PM,50.0,46.4,87,30.54,6.2,West,11.5,-,N/A,,Scattered Clouds,270,2013-01-05 19:20:00
7:50 PM,50.0,46.4,87,30.54,6.2,West,10.4,-,N/A,,Mostly Cloudy,270,2013-01-05 19:50:00
8:20 PM,50.0,44.6,82,30.54,6.2,West,10.4,-,N/A,,Partly Cloudy,260,2013-01-05 20:20:00
8:50 PM,49,46,83,30.54,14,SW,8.1,,,,,230,2013-01-05 20:50:00
8:50 PM,50.0,44.6,82,30.54,-9999.0,WSW,9.2,-,N/A,,Clear,240,2013-01-05 20:50:00
9:20 PM,48.2,44.6,87,30.54,-9999.0,WSW,9.2,-,N/A,,Clear,240,2013-01-05 21:20:00
9:50 PM,48.2,44.6,87,30.54,-9999.0,SW,8.1,-,N/A,,Clear,230,2013-01-05 21:50:00
10:20 PM,46.4,44.6,93,30.54,-9999.0,SW,9.2,-,N/A,,Clear,230,2013-01-05 22:20:00
10:50 PM,46.4,42.8,87,30.54,-9999.0,SW,8.1,-,N/A,,Clear,220,2013-01-05 22:50:00
11:20 PM,44.6,42.8,93,30.54,-9999.0,SW,4.6,-,N/A,,Clear,220,2013-01-05 23:20:00
11:50 PM,46,44,92,30.54,8,SSW,6.9,,,,,210,2013-01-05 23:50:00
11:50 PM,44.6,42.8,93,30.54,-9999.0,SW,6.9,-,N/A,,Clear,220,2013-01-05 23:50:00